TimeCDT,TemperatureF,Dew PointF,Humidity,Sea Level PressureIn,VisibilityMPH,Wind Direction,Wind SpeedMPH,Gust SpeedMPH,PrecipitationIn,Events,Conditions,WindDirDegrees,DateUTC
12:39 AM,53.6,48.2,82,29.72,8.0,WNW,15.0,-,N/A,,Overcast,300,2013-05-22 05:39:00
12:54 AM,54.0,48.9,83,29.70,9.0,NW,17.3,-,N/A,,Overcast,310,2013-05-22 05:54:00
1:54 AM,54.0,50.0,86,29.70,10.0,WNW,13.8,-,N/A,,Overcast,290,2013-05-22 06:54:00
2:52 AM,53.6,48.2,82,29.72,10.0,WNW,17.3,23.0,N/A,,Overcast,300,2013-05-22 07:52:00
2:54 AM,54.0,48.9,83,29.70,10.0,WNW,17.3,-,N/A,,Overcast,300,2013-05-22 07:54:00
3:05 AM,53.6,48.2,82,29.72,9.0,WNW,16.1,-,N/A,,Overcast,300,2013-05-22 08:05:00
3:54 AM,53.1,50.0,89,29.70,10.0,WNW,12.7,-,0.01,,Overcast,290,2013-05-22 08:54:00
4:02 AM,53.6,50.0,88,29.72,10.0,WNW,15.0,-,N/A,,Overcast,290,2013-05-22 09:02:00
4:47 AM,53.6,50.0,88,29.71,10.0,WNW,13.8,-,N/A,,Overcast,300,2013-05-22 09:47:00
4:54 AM,53.1,50.0,89,29.70,10.0,WNW,15.0,21.9,N/A,,Overcast,300,2013-05-22 09:54:00
5:50 AM,53.6,50.0,88,29.71,10.0,WNW,16.1,21.9,0.00,,Overcast,300,2013-05-22 10:50:00
5:54 AM,53.1,50.0,89,29.70,10.0,WNW,13.8,-,0.00,Rain,Light Rain,300,2013-05-22 10:54:00
6:01 AM,53.6,50.0,88,29.71,10.0,WNW,15.0,-,0.00,Rain,Light Rain,300,2013-05-22 11:01:00
6:15 AM,53.6,50.0,88,29.72,10.0,WNW,16.1,-,0.00,,Overcast,290,2013-05-22 11:15:00
6:31 AM,53.6,50.0,88,29.72,10.0,WNW,16.1,-,0.00,,Overcast,300,2013-05-22 11:31:00
6:54 AM,54.0,50.0,86,29.71,10.0,NW,17.3,25.3,0.00,,Overcast,310,2013-05-22 11:54:00
7:34 AM,53.6,48.2,82,29.73,10.0,NW,21.9,28.8,0.00,,Overcast,320,2013-05-22 12:34:00
7:54 AM,55.0,48.9,80,29.72,10.0,NW,20.7,-,0.00,,Overcast,320,2013-05-22 12:54:00
8:17 AM,55.4,50.0,82,29.74,10.0,NW,16.1,-,N/A,,Overcast,320,2013-05-22 13:17:00
8:27 AM,55.4,50.0,82,29.75,10.0,NW,16.1,-,0.00,Rain,Light Rain,320,2013-05-22 13:27:00
8:54 AM,55.0,50.0,83,29.74,10.0,NNW,17.3,-,0.00,Rain,Light Rain,330,2013-05-22 13:54:00
9:54 AM,55.9,50.0,80,29.77,10.0,NNW,20.7,-,0.00,,Overcast,340,2013-05-22 14:54:00
10:54 AM,57.0,48.0,72,29.78,10.0,NW,20.7,26.5,N/A,,Overcast,320,2013-05-22 15:54:00
11:54 AM,57.0,50.0,77,29.80,3.0,NW,13.8,-,0.00,Rain,Light Rain,320,2013-05-22 16:54:00
12:17 PM,57.2,50.0,77,29.82,9.0,NW,13.8,-,0.00,,Overcast,310,2013-05-22 17:17:00
12:50 PM,59.0,48.2,67,29.82,9.0,North,10.4,-,0.00,,Overcast,360,2013-05-22 17:50:00
12:54 PM,59.0,48.9,69,29.81,10.0,North,10.4,-,0.00,,Overcast,360,2013-05-22 17:54:00
1:28 PM,59.0,48.2,67,29.83,10.0,NW,12.7,-,N/A,,Overcast,310,2013-05-22 18:28:00
1:35 PM,59.0,48.2,67,29.83,9.0,WNW,18.4,21.9,N/A,,Overcast,300,2013-05-22 18:35:00
1:45 PM,59.0,50.0,72,29.83,9.0,WNW,13.8,-,N/A,,Overcast,300,2013-05-22 18:45:00
1:54 PM,59.0,48.9,69,29.82,10.0,WNW,11.5,-,N/A,,Overcast,290,2013-05-22 18:54:00
2:11 PM,55.4,51.8,88,29.83,1.8,WNW,17.3,-,0.01,Rain,Rain,300,2013-05-22 19:11:00
2:21 PM,57.2,53.6,88,29.83,3.0,WNW,12.7,-,0.01,Rain,Light Rain,300,2013-05-22 19:21:00
2:54 PM,60.1,53.1,78,29.81,10.0,WNW,15.0,-,0.01,,Overcast,290,2013-05-22 19:54:00
3:24 PM,57.2,50.0,77,29.83,5.0,NW,19.6,27.6,0.01,Rain,Light Rain,310,2013-05-22 20:24:00
3:41 PM,60.8,51.8,72,29.83,10.0,NW,19.6,27.6,0.01,,Overcast,320,2013-05-22 20:41:00
3:54 PM,60.1,51.1,72,29.82,10.0,NNW,19.6,-,0.01,,Overcast,330,2013-05-22 20:54:00
4:54 PM,61.0,46.9,60,29.83,10.0,NNW,15.0,-,N/A,,Overcast,330,2013-05-22 21:54:00
5:54 PM,60.1,46.9,62,29.85,10.0,NNW,18.4,-,N/A,,Overcast,340,2013-05-22 22:54:00
6:19 PM,57.2,46.4,67,29.87,10.0,NNW,16.1,-,N/A,,Overcast,340,2013-05-22 23:19:00
6:38 PM,59.0,46.4,63,29.87,10.0,NNW,15.0,-,N/A,,Overcast,330,2013-05-22 23:38:00
6:54 PM,59.0,46.9,64,29.87,10.0,NNW,16.1,-,N/A,,Overcast,330,2013-05-22 23:54:00
7:54 PM,57.9,48.0,70,29.89,10.0,NW,13.8,-,N/A,,Overcast,320,2013-05-23 00:54:00
8:08 PM,57.2,48.2,72,29.91,10.0,NW,13.8,-,N/A,,Overcast,320,2013-05-23 01:08:00
8:54 PM,57.0,48.0,72,29.91,10.0,NNW,13.8,-,N/A,,Overcast,330,2013-05-23 01:54:00
9:54 PM,57.0,48.0,72,29.94,10.0,NNW,12.7,-,N/A,,Overcast,330,2013-05-23 02:54:00
10:02 PM,57.2,48.2,72,29.95,10.0,NW,13.8,-,N/A,,Overcast,320,2013-05-23 03:02:00
10:54 PM,55.0,48.9,80,29.96,10.0,NNW,12.7,-,N/A,,Overcast,340,2013-05-23 03:54:00
11:54 PM,55.0,48.9,80,29.98,10.0,NNW,11.5,-,N/A,,Overcast,340,2013-05-23 04:54:00